Location: B�rgermoos
(47.6500°N, 9.0667°E)
Time: 00:28:09
(UTC+00:00)

Tiros 1 - Pass Details

Date: 11 August 2021
Orbit: 630 x 663 km, 48.4° (Epoch: 19 September)

Event Time Altitude Azimuth Distance (km) Brightness Sun altitude
Rises 18:58:33 0° 286° (WNW) 2,989 12.9 -3.2°
Reaches altitude 10° 19:01:01 10° 279° (W) 2,070 11.3 -3.6°
Maximum altitude 19:05:27 39° 211° (SSW) 981 8.2 -4.3°
Drops below altitude 10° 19:09:50 10° 143° (SE) 2,043 9.2 -4.9°
Enters shadow 19:11:05 - 139° (SE) 2,503 9.6 -5.1°
Sets 19:12:15 0° 136° (SE) 2,944 - -5.3°
